Weather in Druzhnaya Gorka

Russia / Saint-Petersburg and Leningrad Oblast     59°16′54″N   30°07′20″E
temp.,
°C
wind,
m/s
gust,
m/s
humid.,
%
clouds,
%
prec.,
mm/h
press.,
hPa
HPBL,
m
16 may, mon
mon1600:00+4w310885 0.0 1008258
03:00+3w3129249 0.0 1008347
06:00+5wnw51094100 0.5 1008880
09:00+6wnw4109197 2.8 1008733
12:00+11nw5852100 0.0 10081675
15:00+7nw51082100 0.1 1010946
18:00+9nnw5107494 0.1 10101160
21:00+7nw4108274 0.2 1011720
17 may, tue
tue1700:00+6nw3891100 0.1 1010433
03:00+6nw3894100 0.2 1010440
06:00+6nnw3890100 0.0 1011663
09:00+7nnw4780100 0.1 1012819
12:00+8nnw5767100 0.1 10131268
15:00+7nnw5771100 0.2 10141100
18:00+6n4880100 0.1 1016871
21:00+4n4988100 0.1 1017651
18 may, wed
wed1800:00+5nnw4988100 0.0 1018584
03:00+5nnw4882100 0.0 1019586
06:00+3nnw3983100 0.0 1019467
09:00+8nw475770 0.0 10191092
12:00+10nw4855100 0.1 10191530
15:00+12w5842100 0.1 10171543
18:00+12wnw41242100 0.0 10151532
21:00+10wnw41260100 0.0 1014724
19 may, thu
thu1900:00+5w1194100 0.4 101530
03:00+4wnw3109764 0.6 1015291
06:00+4nnw2791100 0.0 1017230
09:00+8n3567100 0.0 1018706
12:00+12n344293 0.0 10181875
15:00+14n343410 0.0 10182200
18:00+13n443629 0.0 10181968
21:00+7ne25643 0.0 1019119
20 may, fri
fri2000:00+3ese116859 0.0 102010
03:00+2sse016959 0.0 102010
06:00+4ese00620 0.0 102035
09:00+10e224370 0.0 1019720
12:00+13ene333596 0.0 10181808
15:00+15ene333163 0.0 10162292
18:00+13ne553553 0.0 10151354
21:00+7ne3853100 0.0 1016278